www.pogodaiklimat.ru

Погода и климат >> Архив погоды >> Австралия >> Северная территория >> Виктория-Ривер


ПОГОДА в Виктория-Ривер

  • Прогноз погоды в Виктория-Ривер
  • Монитор погоды в Виктория-Ривер

АРХИВ ПОГОДЫ в Виктория-Ривер

Время (UTC), дата Ветер
(напр.,м/с)
 
Видим.   Явления Облачность Т
(С)
Тd
(С)
f
(%)
Тe
(С)
Тes
(С)
Комфортность P
(гПа)
Po
(гПа)
Тmin
(С)
Tmax
(С)
R
(мм)
R24
(мм)
S
(см)
14 18.06 ЮВ 3 н/о н/о +21.6 +2.8 29 +22 +22 комфорт 1017.1 1006.5 +31.3
17 18.06 В 3 н/о н/о +20.3 -2.7 21 +20 +20 1017.5 1006.9
20 18.06 В 3 н/о н/о +18.3 -3.8 22 +18 +18 1018.0 1007.4
23 18.06 СВ 5 н/о н/о +19.3 -2.3 23 +19 +19 1019.8 1009.2
02 19.06 В 6 н/о н/о +23.8 -3.5 16 +22 +22 комфорт 1018.3 1007.7 +14.9
05 19.06 ЮВ 5 н/о н/о +26.7 -4.0 13 +24 +24 комфорт 1014.9 1004.4
08 19.06 ЮВ 4 н/о н/о +25.6 -4.8 13 +23 +23 комфорт 1014.5 1004.0
11 19.06 Ю 3 н/о н/о +18.9 -2.1 24 +19 +19 1016.8 1006.2
14 19.06 Ю 2 н/о н/о +18.0 -2.8 24 +19 +19 1017.6 1007.0 +27.2
17 19.06 Ю 3 н/о н/о +15.5 -2.4 29 +15 +15 1018.1 1007.5
20 19.06 Ю 3 н/о н/о +13.4 -2.5 33 +13 +13 1018.5 1007.9
23 19.06 ЮВ 3 н/о н/о +17.4 -1.3 28 +17 +17 1020.5 1009.9
02 20.06 В 4 н/о н/о +23.7 -0.6 20 +22 +22 комфорт 1018.9 1008.3 +10.9
05 20.06 ЮВ 5 н/о н/о +26.2 -3.4 14 +24 +24 комфорт 1015.9 1005.3
08 20.06 ЮВ 4 н/о н/о +25.7 -4.7 13 +23 +23 комфорт 1015.5 1004.9
11 20.06 Ю 3 н/о н/о +20.3 -2.1 22 +21 +21 комфорт 1017.5 1006.9
14 20.06 ЮВ 2 н/о н/о +17.0 -2.1 27 +17 +17 1018.3 1007.7 +27.3
17 20.06 Ю 2 н/о н/о +12.0 -0.5 42 +12 +12 1018.3 1007.7
20 20.06 штиль 0 н/о н/о +9.4 -4.2 38 +9 +9 1018.8 1008.2
23 20.06 ЮВ 3 н/о н/о +16.4 -1.2 30 +16 +16 1020.2 1009.6
02 21.06 ЮВ 4 н/о н/о +22.9 -1.9 19 +22 +22 комфорт 1018.2 1007.6 +8.1
05 21.06 ЮВ 4 н/о н/о +25.7 -2.8 15 +24 +24 комфорт 1014.5 1004.0
08 21.06 ЮВ 4 н/о н/о +25.4 -4.0 14 +23 +23 комфорт 1014.8 1004.3
11 21.06 Ю 3 н/о н/о +19.1 -1.4 25 +19 +19 1016.7 1006.1
14 21.06 ЮВ 2 н/о н/о +16.4 -1.7 29 +17 +17 1017.2 1006.6 +26.9
17 21.06 Ю 2 н/о н/о +11.2 -1.9 40 +11 +11 1017.7 1007.1
20 21.06 Ю 2 н/о н/о +9.1 -2.8 43 +8 +8 1018.4 1007.8
23 21.06 Ю 3 29 км 3/0
[Ci fib]
+15.7 -2.3 29 +15 +17 1019.7 1009.1
02 22.06 В 4 н/о н/о +21.4 -4.6 17 +20 +20 1018.3 1007.7 +7.7
05 22.06 Ю 2 н/о н/о +25.4 -4.0 14 +23 +23 комфорт 1014.8 1004.3
08 22.06 Ю 4 н/о н/о +24.7 -4.6 14 +23 +23 комфорт 1014.3 1003.8
11 22.06 Ю 3 н/о н/о +19.8 -4.5 19 +20 +20 1016.7 1006.1
14 22.06 Ю 2 н/о н/о +14.7 -3.1 29 +15 +15 1017.5 1006.9 +26.5
17 22.06 штиль 0 н/о н/о +9.2 -5.8 34 +9 +9 1017.5 1006.9
20 22.06 Ю 2 н/о н/о +6.7 -5.3 42 +5 +5 1017.9 1007.3
23 22.06 ЮВ 4 29 км 3/0
[Ci fib]
+15.5 -7.3 20 +15 +16 1019.8 1009.2
02 23.06 ЮВ 4 н/о н/о +22.7 -7.1 13 +21 +21 комфорт 1018.7 1008.1 +6.5
05 23.06 ЮВ 4 н/о н/о +26.5 -6.3 11 +24 +24 комфорт 1015.5 1004.9
08 23.06 ЮВ 4 н/о н/о +25.7 -11.0 8 +23 +23 комфорт 1015.1 1004.6
11 23.06 ЮВ 3 н/о н/о +19.2 -8.9 14 +19 +19 1017.3 1006.7
14 23.06 ЮВ 3 н/о н/о +15.8 -9.2 17 +16 +16 1018.2 1007.6 +27.6
17 23.06 штиль 0 н/о н/о +8.5 -10.4 25 +9 +9 1018.3 1007.7
20 23.06 Ю 2 н/о н/о +5.5 -10.3 31 +4 +4 1019.1 1008.5
23 23.06 ЮВ 3 28 км ясно +15.1 -7.7 20 +15 +16 1021.1 1010.5
02 24.06 ЮВ 4 н/о н/о +22.5 -7.3 13 +21 +21 комфорт 1020.0 1009.4 +5.3
05 24.06 ЮВ 3 н/о н/о +26.5 -7.6 10 +23 +23 комфорт 1017.2 1006.6
08 24.06 ЮВ 3 н/о н/о +25.6 -9.6 9 +23 +23 комфорт 1017.2 1006.6
11 24.06 ЮВ 3 н/о н/о +17.4 -8.6 16 +18 +18 1019.1 1008.5
14 24.06 штиль 0 н/о н/о +12.6 -10.4 19 +13 +13 1019.4 1008.8 +27.3
17 24.06 штиль 0 н/о н/о +8.9 -10.5 24 +9 +9 1019.3 1008.7
20 24.06 ЮЗ 2 н/о н/о +7.2 -10.1 28 +6 +6 1020.0 1009.4
23 24.06 Ю 2 30 км ясно +15.9 -7.7 19 +16 +18 1021.8 1011.2
02 25.06 ЮВ 4 н/о н/о +24.1 -8.2 11 +22 +22 комфорт 1020.3 1009.7 +6.2

 

Местоположение метеостанции Виктория-Ривер (Северная территория, Австралия): широта -16.40 долгота 131.02 высота над уровнем моря 90 м.

В архиве по умолчанию представлена погода в Виктория-Ривер за последнюю неделю. Архивные данные за месяц целиком и за предыдущие месяцы, начиная с января 2011 года, Вы можете получить, выбрав интересующий диапазон дат из раскрывающегося списка и нажав кнопку "Ввод!".


*Определитесь, кто Вы:
робот инопланетянин человек

Внимание! Время в таблицах - всемирное. Для получения местного времени необходимо прибавить поправку, которая равна 9.5 ч.

Смотрите также архив погоды в соседних городах и на ближайших метеорологических станциях:

Погода на Базе ВВС Delamere Weapons Range (Северная территория, Австралия) (120 км)
Погода в Манбуллу Ксиро (Северная территория, Австралия) (163 км)
Погода в Ладжаману (Северная территория, Австралия) (219 км)
Погода в Дейли Уотерс (Северная территория, Австралия) (251 км)
Погода в Тиндале (Северная территория, Австралия) (255 км)
Погода в Кунунарре (Западная Австралия, Австралия) (256 км)
Погода в Аэропорту Аргайл (Западная Австралия, Австралия) (275 км)
Погода на Маяке Кейп-Дон (Северная территория, Австралия) (286 км)
Погода в Порт Китс (Северная территория, Австралия) (288 км)
Погода в Уиндеме (Западная Австралия, Австралия) (323 км)

Пояснения к столбцам:

Ветер - указаны скорость ветра в м/с - средняя за 10 мин, порывы в срок и между сроками (в фигурных скобках) и направление, откуда дует ветер: С - северный, СВ - северо-восточный, В - восточный, ЮВ - юго-восточный, Ю - южный, ЮЗ - юго-западный, З - западный, СЗ - северо-западный.
Видимость - горизонтальная дальность видимости в метрах или километрах. При видимости от 1 до 10 км при отсутствии осадков обычно наблюдается дымка, при ухудшении видимости до 1 км и менее - туман. В сухую погоду видимость может ухудшаться дымом, пылью или мглою.
Явления - указаны атмосферные явления, наблюдавшиеся в срок или в последний час перед сроком; фигурными скобками обозначены явления, наблюдавшиеся между сроками (за 1-3 часа до срока); квадратными скобками обозначены град или гололедные отложения с указанием их диаметра в мм.
Облачность - указаны через наклонную черту общая и нижняя облачность в баллах и высота нижней границы облаков в метрах; квадратными скобками обозначены формы облаков: Ci - перистые, Cs - перисто-слоистые, Cc - перисто-кучевые, Ac - высококучевые, As - высокослоистые, Sc - слоисто-кучевые, Ns - слоисто-дождевые, Cu - кучевые, Cb - кучево-дождевые. Подробнее классификацию облаков см. в Атласе облаков (PDF).
T - Температура воздуха - температура, измеренная на высоте 2 м над землей.
Td - Температура точки росы - температура, при понижении до которой содержащийся в воздухе водяной пар достигнет насыщения.
f - Относительная влажность воздуха - влажноcть воздуха, измеренная на высоте 2 м над землей.
Te - Эффективная температура - температура, которую ощущает одетый по сезону человек в тени. Характеристика душности погоды. При расчете учитывается влияние влажности воздуха и скорости ветра на теплоощущения человека.
Tes - Эффективная температура на солнце - температура, которую ощущает человек, с поправкой на солнечный нагрев. Характеристика знойности погоды. Зависит от высоты солнца над горизонтом, облачности и скорости ветра. Ночью, в пасмурную погоду, а также при ветре 12 м/с и более поправка равна нулю.
P - Атмосферное давление - приведенное к уровню моря атмосферное давление.
Po - Атмосферное давление - измеренное на уровне метеостанции атмосферное давление.
Tmin - Минимальная температура - минимум температуры воздуха на высоте 2 м над землей.
Tmax - Максимальная температура - максимум температуры воздуха на высоте 2 м над землей.
R - Количество осадков - Количество выпавших осадков за период времени, мм. При наведении курсора мыши на число - период времени, за который выпало указанное количество осадков.
R24 - Количество осадков - Количество выпавших осадков за 24 часа, мм.
S - Снежный покров - Высота снежного покрова, см. При наведении курсора мыши на число - состояние снежного покрова и степень покрытия местности в баллах.